ARIANE 42P DEB, 44509

Orbit data source: Space-Track

ARIANE 42P DEB, 44509 is space debris in LEO originally from a launch on Mon, 10 Aug 1992 UTC launched from the French Guiana (FRGUI). Debris objects in space refer to the collection of defunct objects orbiting the Earth. Examples of debris include non-operational satellites, rocket bodies, and fragments generated from explosions, collisions, or faulty payload assembly.

Loading next visibility...
ARIANE 42P DEB details
Identifier
44509, 1992-052G
Orbit
LEO
Last TLE update1 day ago
Origin
Flag of FRArianespace (FR)
ManufacturerArianeGroup
MissionSpacecraft
Bus & MotorUnknown
MassUnknown
Launch date (UTC)
1992-08-10 (32 years ago)
Launch vehicleUnknown
Launch site
French Guiana (FRGUI)
Object type
Payload
Rocket body
Debris
Shape & HBRUnknown
Radar Cross SectionSmall (<0.1 m²)

Expand to show TLE details & history

TLE from 1 day ago
0 ARIANE 42P DEB
1 44509U 92052G   24360.29422509  .00002463  00000-0  10446-1 0  9999
2 44509  66.0825 330.9380 0076383 174.5699 185.6163 12.83435166250731
Epoch: 2024-12-25T07:03Z
Definitive object data (Epoch: 2024-12-25T07:03:41.047Z)
Latitude-0.0001°
Longitude130.72689°
Altitude1,388.192 km
Speed7.139 km/s
True Right ascension22h 03m 45s
True Declination0° 00' 00"
Sunlit
Object was in daylight at TLE epoch
Visualization TLE readout
Latitude-39.69364°
Longitude-30.15955°
Altitude1,303.79 km
Speed7.222 km/s
Apparent Right ascension14h 56m 05s
Apparent Declination-74° 47' 10"
Sunlit
Object is in daylight
Visualization observer readout
Local Sidereal Time09:45:22
Azimuth161.718° S
Elevation-35.186°
Doppler factor1
Orbital elements
Apogee altitude1,385.094 km
Perigee altitude1,267.397 km
Semi-major axis7,704.383 km
Eccentricity0.0076383
Inclination66.0825°
RAAN330.938°
Arg. of periapsis174.5699°
True anomaly185.53145°
Mean anomaly185.6163°
Eccentric anomaly185.57379°
Mean motion3.20949 °/min
BSTAR0.010446
Orbital period112.17 mins
Loading maneuver chart data...
Loading historical data...
Loading historical data...
Loading historical data...
Loading historical data...
Loading historical data...
Loading historical data...
Loading historical data...

ARIANE 42P DEB Visibility forecast

Observer location: undefined°, undefined

Span
Click to sort rows by Start time (UTC) header in descending order
Start Az.
Max El. time (UTC)
Max El. Az.
Max El.
End time (UTC)
End Az.
12 mins2024-12-26 22:26:11.702Z159.777° S2024-12-26 22:32:11.702Z106.865° ESE27.274°2024-12-26 22:38:11.702Z53.085° ENE
14 mins2024-12-27 00:21:11.702Z229.104° WSW2024-12-27 00:27:11.702Z296.63° NW41.09°2024-12-27 00:35:11.702Z24.096° NE
8 mins2024-12-27 02:21:11.702Z297.623° NW2024-12-27 02:25:11.702Z330.345° NNW16.989°2024-12-27 02:29:11.702Z2.512° NNE
8 mins2024-12-27 06:21:11.702Z359.879° N2024-12-27 06:25:11.702Z33.335° NE16.604°2024-12-27 06:29:11.702Z65.999° ENE
13 mins2024-12-27 08:16:11.702Z338.541° N2024-12-27 08:22:11.702Z46.733° ENE41.176°2024-12-27 08:29:11.702Z133.596° SE
11 mins2024-12-27 10:12:11.702Z304.079° NW2024-12-27 10:17:11.702Z258.519° W25.377°2024-12-27 10:23:11.702Z202.347° SSW
|